Time,TemperatureF,DewpointF,PressureIn,WindDirection,WindDirectionDegrees,WindSpeedMPH,WindSpeedGustMPH,Humidity,HourlyPrecipIn,Conditions,Clouds,dailyrainin,SolarRadiationWatts/m^2,SoftwareType,DateUTC
2013-04-12 00:15:00,49.1,-29.0,29.90,NW,323,10.0,11.0,3,0.00,,,0.00,0,weatherlink.com 1.10,2013-04-12 07:15:00,
2013-04-12 00:29:00,48.8,-49.0,29.90,NW,314,6.0,12.0,1,0.00,,,0.00,0,weatherlink.com 1.10,2013-04-12 07:29:00,
2013-04-12 00:45:00,48.7,-99.9,29.90,West,281,2.0,14.0,0,0.00,,,0.00,0,weatherlink.com 1.10,2013-04-12 07:45:00,
2013-04-12 01:00:00,48.5,-99.9,29.90,NNW,348,6.0,9.0,0,0.00,,,0.00,0,weatherlink.com 1.10,2013-04-12 08:00:00,
2013-04-12 01:15:00,48.0,-49.0,29.90,NNE,20,4.0,7.0,1,0.00,,,0.00,0,weatherlink.com 1.10,2013-04-12 08:15:00,
2013-04-12 01:31:00,47.2,-31.0,29.89,NNE,25,0.0,4.0,3,0.00,,,0.00,0,weatherlink.com 1.10,2013-04-12 08:31:00,
2013-04-12 01:46:00,47.1,-99.9,29.90,ENE,64,0.0,4.0,0,0.00,,,0.00,0,weatherlink.com 1.10,2013-04-12 08:46:00,
2013-04-12 02:02:00,46.9,-38.0,29.90,ENE,64,0.0,0.0,2,0.00,,,0.00,0,weatherlink.com 1.10,2013-04-12 09:02:00,
2013-04-12 02:16:00,47.1,-99.9,29.90,ENE,64,0.0,0.0,0,0.00,,,0.00,0,weatherlink.com 1.10,2013-04-12 09:16:00,
2013-04-12 02:32:00,47.3,-99.9,29.89,ENE,64,0.0,0.0,0,0.00,,,0.00,0,weatherlink.com 1.10,2013-04-12 09:32:00,
2013-04-12 02:47:00,47.2,-99.9,29.89,ENE,64,0.0,0.0,0,0.00,,,0.00,0,weatherlink.com 1.10,2013-04-12 09:47:00,
2013-04-12 03:02:00,46.9,-99.9,29.89,ENE,64,0.0,0.0,0,0.00,,,0.00,0,weatherlink.com 1.10,2013-04-12 10:02:00,
2013-04-12 03:17:00,46.4,-99.9,29.89,ENE,64,0.0,0.0,0,0.00,,,0.00,0,weatherlink.com 1.10,2013-04-12 10:17:00,
2013-04-12 03:32:00,46.8,-99.9,29.89,ENE,64,0.0,2.0,0,0.00,,,0.00,0,weatherlink.com 1.10,2013-04-12 10:32:00,
2013-04-12 03:46:00,47.5,-99.9,29.88,ENE,64,0.0,0.0,0,0.00,,,0.00,0,weatherlink.com 1.10,2013-04-12 10:46:00,
2013-04-12 04:03:00,48.0,-99.9,29.88,ENE,65,0.0,0.0,0,0.00,,,0.00,0,weatherlink.com 1.10,2013-04-12 11:03:00,
2013-04-12 04:18:00,48.5,-99.9,29.88,ENE,68,0.0,0.0,0,0.00,,,0.00,0,weatherlink.com 1.10,2013-04-12 11:18:00,
2013-04-12 04:33:00,47.2,-99.9,29.89,East,98,0.0,5.0,0,0.00,,,0.00,0,weatherlink.com 1.10,2013-04-12 11:33:00,
2013-04-12 04:47:00,47.2,-99.9,29.89,SE,128,2.0,5.0,0,0.00,,,0.00,0,weatherlink.com 1.10,2013-04-12 11:47:00,
2013-04-12 05:03:00,47.1,-99.9,29.89,SE,126,4.0,7.0,0,0.00,,,0.00,0,weatherlink.com 1.10,2013-04-12 12:03:00,
2013-04-12 05:18:00,47.1,-99.9,29.89,ESE,117,6.0,6.0,0,0.00,,,0.00,0,weatherlink.com 1.10,2013-04-12 12:18:00,
2013-04-12 05:33:00,46.9,-99.9,29.89,ESE,103,4.0,7.0,0,0.00,,,0.00,0,weatherlink.com 1.10,2013-04-12 12:33:00,
2013-04-12 05:49:00,46.8,-99.9,29.89,ESE,117,3.0,7.0,0,0.00,,,0.00,0,weatherlink.com 1.10,2013-04-12 12:49:00,
2013-04-12 06:03:00,46.8,-99.9,29.89,ESE,109,5.0,7.0,0,0.00,,,0.00,0,weatherlink.com 1.10,2013-04-12 13:03:00,
2013-04-12 06:19:00,47.1,-99.9,29.89,ESE,121,2.0,9.0,0,0.00,,,0.00,0,weatherlink.com 1.10,2013-04-12 13:19:00,
2013-04-12 06:33:00,47.2,-99.9,29.90,ESE,123,2.0,7.0,0,0.00,,,0.00,0,weatherlink.com 1.10,2013-04-12 13:33:00,
2013-04-12 06:49:00,47.2,-99.9,29.90,ESE,117,4.0,6.0,0,0.00,,,0.00,9,weatherlink.com 1.10,2013-04-12 13:49:00,
2013-04-12 07:04:00,46.9,-99.9,29.90,SE,131,2.0,7.0,0,0.00,,,0.00,19,weatherlink.com 1.10,2013-04-12 14:04:00,
2013-04-12 07:19:00,47.0,-99.9,29.91,ESE,111,3.0,7.0,0,0.00,,,0.00,32,weatherlink.com 1.10,2013-04-12 14:19:00,
2013-04-12 07:35:00,47.0,-99.9,29.91,East,98,4.0,7.0,0,0.00,,,0.00,51,weatherlink.com 1.10,2013-04-12 14:35:00,
2013-04-12 07:49:00,47.0,-99.9,29.91,SE,125,6.0,8.0,0,0.00,,,0.00,70,weatherlink.com 1.10,2013-04-12 14:49:00,
2013-04-12 08:05:00,47.9,-99.9,29.92,ESE,107,0.0,2.0,0,0.00,,,0.00,197,weatherlink.com 1.10,2013-04-12 15:05:00,
2013-04-12 08:20:00,48.3,-99.9,29.93,ESE,117,0.0,1.0,0,0.00,,,0.00,204,weatherlink.com 1.10,2013-04-12 15:20:00,
2013-04-12 08:34:00,48.7,-99.9,29.94,South,184,2.0,5.0,0,0.00,,,0.00,148,weatherlink.com 1.10,2013-04-12 15:34:00,
2013-04-12 08:50:00,48.8,-99.9,29.94,South,169,1.0,5.0,0,0.00,,,0.00,253,weatherlink.com 1.10,2013-04-12 15:50:00,
2013-04-12 09:05:00,48.8,-99.9,29.94,SSE,150,0.0,4.0,0,0.00,,,0.00,253,weatherlink.com 1.10,2013-04-12 16:05:00,
2013-04-12 09:21:00,49.9,-99.9,29.94,South,181,0.0,4.0,0,0.00,,,0.00,510,weatherlink.com 1.10,2013-04-12 16:21:00,
2013-04-12 09:35:00,51.4,-99.9,29.93,ESE,107,0.0,2.0,0,0.00,,,0.00,536,weatherlink.com 1.10,2013-04-12 16:35:00,
2013-04-12 09:51:00,53.0,-1.0,29.93,West,274,2.0,6.0,11,0.00,,,0.00,568,weatherlink.com 1.10,2013-04-12 16:51:00,
2013-04-12 10:20:00,54.5,29.0,29.93,WNW,283,5.0,7.0,38,0.00,,,0.00,664,weatherlink.com 1.10,2013-04-12 17:20:00,
2013-04-12 10:35:00,54.5,37.0,29.93,WNW,288,6.0,8.0,52,0.00,,,0.00,686,weatherlink.com 1.10,2013-04-12 17:35:00,
2013-04-12 10:51:00,56.2,42.0,29.92,West,273,4.0,5.0,60,0.00,,,0.00,738,weatherlink.com 1.10,2013-04-12 17:51:00,
2013-04-12 11:07:00,56.4,45.0,29.93,WSW,244,1.0,5.0,65,0.00,,,0.00,775,weatherlink.com 1.10,2013-04-12 18:07:00,
2013-04-12 11:22:00,57.5,46.0,29.92,West,273,4.0,8.0,65,0.00,,,0.00,796,weatherlink.com 1.10,2013-04-12 18:22:00,
2013-04-12 12:38:00,55.7,42.0,29.92,West,277,7.0,12.0,60,0.00,,,0.00,889,weatherlink.com 1.10,2013-04-12 19:38:00,
2013-04-12 12:53:00,56.5,46.0,29.91,West,274,4.0,11.0,68,0.00,,,0.00,909,weatherlink.com 1.10,2013-04-12 19:53:00,
2013-04-12 13:08:00,57.4,47.0,29.90,WNW,286,4.0,8.0,69,0.00,,,0.00,912,weatherlink.com 1.10,2013-04-12 20:08:00,
2013-04-12 13:22:00,58.1,48.0,29.91,NW,308,7.0,11.0,69,0.00,,,0.00,911,weatherlink.com 1.10,2013-04-12 20:22:00,
2013-04-12 13:37:00,56.9,46.0,29.91,WNW,302,5.0,11.0,68,0.00,,,0.00,895,weatherlink.com 1.10,2013-04-12 20:37:00,
2013-04-12 13:53:00,57.4,44.0,29.91,West,261,7.0,11.0,61,0.00,,,0.00,886,weatherlink.com 1.10,2013-04-12 20:53:00,
2013-04-12 14:08:00,57.2,45.0,29.91,WSW,255,8.0,14.0,63,0.00,,,0.00,814,weatherlink.com 1.10,2013-04-12 21:08:00,
2013-04-12 14:24:00,55.8,44.0,29.90,NW,309,9.0,12.0,64,0.00,,,0.00,814,weatherlink.com 1.10,2013-04-12 21:24:00,
2013-04-12 14:39:00,57.2,47.0,29.91,West,267,8.0,13.0,68,0.00,,,0.00,791,weatherlink.com 1.10,2013-04-12 21:39:00,
2013-04-12 14:53:00,56.5,45.0,29.91,WNW,300,8.0,13.0,66,0.00,,,0.00,770,weatherlink.com 1.10,2013-04-12 21:53:00,
2013-04-12 15:09:00,56.6,44.0,29.91,WNW,301,9.0,14.0,64,0.00,,,0.00,758,weatherlink.com 1.10,2013-04-12 22:09:00,
2013-04-12 15:24:00,56.9,46.0,29.89,NNW,331,4.0,12.0,66,0.00,,,0.00,707,weatherlink.com 1.10,2013-04-12 22:24:00,
2013-04-12 15:39:00,56.7,46.0,29.90,West,261,8.0,15.0,68,0.00,,,0.00,663,weatherlink.com 1.10,2013-04-12 22:39:00,
2013-04-12 15:54:00,55.6,42.0,29.90,WNW,296,10.0,15.0,61,0.00,,,0.00,615,weatherlink.com 1.10,2013-04-12 22:54:00,
2013-04-12 16:09:00,55.4,44.0,29.90,NW,304,9.0,18.0,65,0.00,,,0.00,589,weatherlink.com 1.10,2013-04-12 23:09:00,
2013-04-12 16:24:00,55.0,40.0,29.89,WNW,303,10.0,18.0,58,0.00,,,0.00,622,weatherlink.com 1.10,2013-04-12 23:24:00,
2013-04-12 16:40:00,54.4,41.0,29.89,West,272,19.0,21.0,60,0.00,,,0.00,568,weatherlink.com 1.10,2013-04-12 23:40:00,
2013-04-12 16:54:00,54.6,39.0,29.89,West,273,9.0,19.0,57,0.00,,,0.00,526,weatherlink.com 1.10,2013-04-12 23:54:00,
2013-04-12 17:10:00,55.0,42.0,29.89,NW,323,7.0,14.0,62,0.00,,,0.00,473,weatherlink.com 1.10,2013-04-13 00:10:00,
2013-04-12 17:25:00,54.3,40.0,29.88,NW,313,7.0,23.0,58,0.00,,,0.00,434,weatherlink.com 1.10,2013-04-13 00:25:00,
2013-04-12 17:40:00,53.7,37.0,29.88,WSW,254,11.0,19.0,53,0.00,,,0.00,390,weatherlink.com 1.10,2013-04-13 00:40:00,
2013-04-12 17:56:00,53.2,35.0,29.88,West,263,11.0,20.0,51,0.00,,,0.00,323,weatherlink.com 1.10,2013-04-13 00:56:00,
2013-04-12 18:11:00,53.2,33.0,29.87,NW,312,11.0,20.0,47,0.00,,,0.00,250,weatherlink.com 1.10,2013-04-13 01:11:00,
2013-04-12 18:25:00,52.9,32.0,29.87,West,270,21.0,25.0,46,0.00,,,0.00,186,weatherlink.com 1.10,2013-04-13 01:25:00,
2013-04-12 18:40:00,52.3,30.0,29.86,WNW,294,13.0,25.0,43,0.00,,,0.00,128,weatherlink.com 1.10,2013-04-13 01:40:00,
2013-04-12 18:56:00,51.6,28.0,29.86,West,273,11.0,29.0,40,0.00,,,0.00,60,weatherlink.com 1.10,2013-04-13 01:56:00,
2013-04-12 19:12:00,51.1,22.0,29.85,NW,315,18.0,29.0,32,0.00,,,0.00,32,weatherlink.com 1.10,2013-04-13 02:12:00,
2013-04-12 19:26:00,50.8,17.0,29.86,West,265,16.0,25.0,26,0.00,,,0.00,21,weatherlink.com 1.10,2013-04-13 02:26:00,
2013-04-12 19:42:00,50.5,14.0,29.85,West,273,10.0,26.0,23,0.00,,,0.00,7,weatherlink.com 1.10,2013-04-13 02:42:00,
2013-04-12 19:57:00,50.3,4.0,29.86,WNW,300,9.0,24.0,15,0.00,,,0.00,0,weatherlink.com 1.10,2013-04-13 02:57:00,
2013-04-12 20:12:00,50.1,-3.0,29.87,North,355,6.0,19.0,11,0.00,,,0.00,0,weatherlink.com 1.10,2013-04-13 03:12:00,
2013-04-12 20:27:00,50.0,-12.0,29.87,WNW,300,15.0,22.0,7,0.00,,,0.00,0,weatherlink.com 1.10,2013-04-13 03:27:00,
2013-04-12 20:58:00,49.9,-48.0,29.89,NNW,337,8.0,16.0,1,0.00,,,0.00,0,weatherlink.com 1.10,2013-04-13 03:58:00,
2013-04-12 21:12:00,49.5,-48.0,29.89,NNE,19,5.0,18.0,1,0.00,,,0.00,0,weatherlink.com 1.10,2013-04-13 04:12:00,
2013-04-12 21:27:00,49.6,-99.9,29.90,NNW,334,4.0,18.0,0,0.00,,,0.00,0,weatherlink.com 1.10,2013-04-13 04:27:00,
2013-04-12 21:43:00,49.8,-99.9,29.90,West,272,15.0,21.0,0,0.00,,,0.00,0,weatherlink.com 1.10,2013-04-13 04:43:00,
2013-04-12 21:57:00,49.7,-99.9,29.91,NW,309,10.0,19.0,0,0.00,,,0.00,0,weatherlink.com 1.10,2013-04-13 04:57:00,
2013-04-12 22:13:00,49.4,-99.9,29.92,WNW,300,6.0,18.0,0,0.00,,,0.00,0,weatherlink.com 1.10,2013-04-13 05:13:00,
2013-04-12 22:29:00,49.3,-99.9,29.92,West,277,7.0,20.0,0,0.00,,,0.00,0,weatherlink.com 1.10,2013-04-13 05:29:00,
2013-04-12 22:43:00,49.3,-99.9,29.91,WNW,297,16.0,16.0,0,0.00,,,0.00,0,weatherlink.com 1.10,2013-04-13 05:43:00,
2013-04-12 22:59:00,49.3,-99.9,29.92,WNW,286,15.0,20.0,0,0.00,,,0.00,0,weatherlink.com 1.10,2013-04-13 05:59:00,
2013-04-12 23:14:00,49.3,-99.9,29.91,NW,317,12.0,19.0,0,0.00,,,0.00,0,weatherlink.com 1.10,2013-04-13 06:14:00,
2013-04-12 23:29:00,49.2,-99.9,29.90,WNW,292,14.0,19.0,0,0.00,,,0.00,0,weatherlink.com 1.10,2013-04-13 06:29:00,
2013-04-12 23:44:00,49.0,-99.9,29.91,NW,317,10.0,14.0,0,0.00,,,0.00,0,weatherlink.com 1.10,2013-04-13 06:44:00,
2013-04-12 23:58:00,49.0,-99.9,29.91,NW,316,1.0,18.0,0,0.00,,,0.00,0,weatherlink.com 1.10,2013-04-13 06:58:00,